Location: Góry Miechowskie
(50.3599°N, 20.1803°E)
Time: 19:21:54
(UTC+00:00)

Meteor 1-11 - Pass Details

Date: 15 September 2024
Orbit: 841 x 884 km, 81.2° (Epoch: 09 October)

Event Time Altitude Azimuth Distance (km) Brightness Sun altitude
Rises 23:30:22 0° 342° (NNW) 3,489 8.1 -35.7°
Reaches altitude 10° 23:32:58 10° 335° (NNW) 2,550 7.1 -35.6°
Enters shadow 23:35:24 24° 319° (NW) 1,775 6.1 -35.5°
